Date,TemperatureHighF,TemperatureAvgF,TemperatureLowF,DewpointHighF,DewpointAvgF,DewpointLowF,HumidityHigh,HumidityAvg,HumidityLow,PressureMaxIn,PressureMinIn,WindSpeedMaxMPH,WindSpeedAvgMPH,GustSpeedMaxMPH,PrecipitationSumIn
2013-4-1,64,51,40,46,38,28,89,66,40,30.03,29.83,24,3,25,0.00
2013-4-2,54,43,31,32,22,11,85,48,19,30.19,30.03,19,2,21,0.00
2013-4-3,56,44,30,27,20,10,82,43,16,30.36,30.19,19,2,19,0.00
2013-4-4,44,37,33,31,22,15,87,59,35,30.43,30.04,13,1,13,0.47
2013-4-5,63,48,34,43,34,29,88,65,30,30.05,29.92,16,2,16,0.38
2013-4-6,59,48,36,37,32,23,86,58,26,30.30,30.05,16,2,16,0.00
2013-4-7,70,55,39,43,39,32,82,56,35,30.26,30.05,27,2,27,0.00
2013-4-8,78,62,44,52,45,40,86,59,29,30.13,29.99,22,2,23,0.00
2013-4-9,84,68,50,60,50,46,87,57,30,30.14,30.00,20,1,20,0.00
2013-4-10,88,72,54,59,53,50,86,56,29,30.05,29.86,19,2,19,0.00
2013-4-11,81,70,56,58,55,52,87,62,39,29.91,29.71,28,2,28,0.00
2013-4-12,79,68,60,63,54,37,89,64,28,29.75,29.58,26,3,26,1.34
2013-4-13,74,61,51,43,36,27,62,40,21,29.99,29.75,21,3,22,0.00
2013-4-14,77,62,46,51,41,34,83,51,22,30.10,29.99,20,2,20,0.00
2013-4-15,66,59,54,54,51,44,87,77,47,30.25,30.03,13,1,16,0.21
2013-4-16,74,63,57,60,56,52,90,78,57,30.31,30.16,16,2,16,0.00
2013-4-17,77,67,58,64,58,54,88,75,55,30.20,30.09,7,0,7,0.00
2013-4-18,76,69,61,61,58,54,88,71,48,30.15,29.97,24,3,24,0.00
2013-4-19,74,67,54,64,58,40,85,74,58,29.97,29.63,31,4,31,0.85
2013-4-20,61,52,44,40,32,24,76,46,26,30.31,29.83,24,4,27,0.00
2013-4-21,57,48,40,38,34,28,78,58,41,30.55,30.31,16,2,16,0.00
2013-4-22,59,49,36,39,33,22,84,56,28,30.52,30.31,16,1,16,0.00
2013-4-23,65,55,48,50,43,37,81,64,50,30.34,30.10,13,2,13,0.00
2013-4-24,74,62,48,56,51,45,89,69,47,30.12,29.90,24,2,27,0.00
2013-4-25,67,55,43,46,34,17,75,48,16,30.31,30.04,24,2,26,0.00
2013-4-26,66,56,42,44,36,29,79,51,27,30.46,30.31,12,1,12,0.00
2013-4-27,68,58,51,51,45,40,76,62,41,30.37,30.26,12,0,13,0.00
2013-4-28,58,55,52,52,50,47,87,83,73,30.26,30.07,22,2,22,0.40
2013-4-29,64,57,51,56,51,48,90,83,70,30.11,29.99,10,0,10,0.16
2013-4-30,68,60,55,57,54,52,90,80,65,30.23,30.04,15,1,15,0.00